Find GPS 9

NORAD ID: 15039 Int'l Des: 1984-059 Owner: AFSD Country: US Constellation: GPS operational
MEO

Live Position

Loading 3D Globe...

About GPS 9

Description loading...

Upcoming Passes

Passes for default location (London). Set your location on the main map for personalized predictions.

Altitude History

Loading altitude history...

Two-Line Element Set

1 15039U 84059A 26104.15713593 .00000018 00000-0 00000+0 0 9999
2 15039 63.5367 66.1377 0241960 53.5932 122.8753 1.92302653296892
Epoch: Apr 14, 2026 • Age: 55 hours

Current Status

Altitude 20969.0 km
Velocity 3.82 km/s
Sub-Earth Point -34.84°S, 39.56°E
Launch Date Jun 13, 1984
Age 41.8 years
Type navigation

Technical Details

Classification Payload
Mass 431.00 kg
Dry Mass 431.00 kg
Total Mass 792.00 kg
Length 2.40 m
Diameter 2.60 m
Span 5.30 m
Shape Box + 2 Pan
Manufacturer RWISB
Bus Type GPS
Phase Status In Orbit
Owner/State AFSD/US

Most Searched